Volver al catálogo

SL-8 R/B

ActivoPO
NORAD 12682·ROCKET BODY·🇷🇺 Russia

Lanzado Aug 12, 1981 desde Plesetsk Cosmodrome

Loading…

Próximos Pases (próximas 24 horas)

TLE

ActualizadoSource: Space-Track

Época: Sep 14, 2026, 06:07 UTC

1 12682U 81077B   26257.25518117  .00000033  00000-0  17677-4 0  9992
2 12682  82.9203  10.3878 0032884 231.6173 128.2030 13.78899487267791

Sigue SL-8 R/B en tiempo real con AllMySat

Download on the App Store